C/2010 FB87 ( WISE-Garradd )

Japanese version
Home page
Updated on January 23, 2012

---------------------------------------------------------------------

* Profile

Discovery Date March 28 and April 21, 2010
Magnitude 17.8 mag
Discoverer Wide Field Infrared Survey Explorer (NASA), G. J. Garradd (Siding Spring Survey)

* Pictures

* Orbital Elements

Epoch 2010 Nov. 20.0 TT = JDT 2455520.5
T 2010 Nov. 7.38638 TT                                  MPC
q   2.8427197            (2000.0)            P               Q
z  +0.0032907      Peri.  265.02234     -0.30182658     -0.02451514
 +/-0.0000008      Node    89.89882     +0.29855290     +0.94695660
e   0.9906454      Incl.  107.62681     -0.90540978     +0.32042504
From 393 observations 2010 Mar. 28-2011 Dec. 2, mean residual 0".4.

* Finding Charts

* Magnitudes Graph

        m1 = 7.0 + 5 log d + 12.0 log r(t - 200)

---------------------------------------------------------------------

The orbital elements are published on M.P.E.C. 2011-X25.
The charts are made with StellaNavigator Ver.8 (AstroArts).
The magnitudes graphs are made with Comet for Windows.

---------------------------------------------------------------------

Copyright(C) Seiichi Yoshida (comet@aerith.net). All rights reserved.